FW0041 Weather Reports


Display with metric or nautical units.
time (UTC)temp
F
wind
direction
speed
MPH
gust
MPH
rain 1hr
in
rain 24hr
in
rain mn
in
humidity
%
barometer
mb
20260905001551 92 176 0.0 2.0 0.00 0.00 0.00 61 1012.4
20260905000014 93 176 1.0 2.0 0.00 0.00 0.00 59 1012.4
20260904234548 95 176 0.0 3.0 0.00 0.00 0.00 57 1012.5
20260904233020 96 190 2.0 3.0 0.00 0.00 0.00 54 1012.3
20260904231542 96 208 1.0 7.0 0.00 0.00 0.00 51 1012.5
20260904230014 97 219 4.0 7.0 0.00 0.00 0.00 49 1012.4
20260904224540 97 173 1.0 5.0 0.00 0.00 0.00 49 1012.3
20260904223014 96 213 1.0 6.0 0.00 0.00 0.00 49 1012.5
20260904221534 96 201 0.0 4.0 0.00 0.00 0.00 50 1012.4
20260904220002 96 190 2.0 5.0 0.00 0.00 0.00 51 1012.7
20260904214521 95 323 1.0 6.0 0.00 0.00 0.00 52 1012.7
20260904213048 95 244 1.0 5.0 0.00 0.00 0.00 53 1012.8
20260904211510 94 154 1.0 8.0 0.00 0.00 0.00 53 1012.9
20260904210037 94 192 3.0 10.0 0.00 0.00 0.00 55 1013.2
20260904204510 94 190 3.0 7.0 0.00 0.06 0.00 56 1013.3
20260904203032 93 205 1.0 10.0 0.00 0.06 0.00 57 1013.6
20260904201550 92 183 2.0 6.0 0.00 0.06 0.00 58 1013.6
20260904200007 91 198 2.0 7.0 0.00 0.06 0.00 57 1013.7
20260904194531 90 211 2.0 7.0 0.00 0.11 0.00 60 1013.8
20260904193042 88 236 3.0 5.0 0.00 0.11 0.00 65 1013.9
20260904191507 87 205 2.0 7.0 0.00 0.11 0.00 68 1014.2
20260904190029 88 155 0.0 10.0 0.00 0.11 0.00 68 1014.3
20260904184612 88 212 6.0 10.0 0.00 0.20 0.00 68 1014.6
20260904183017 88 203 2.0 8.0 0.00 0.20 0.00 68 1015.0
20260904181540 88 248 2.0 7.0 0.00 0.20 0.00 72 1015.1
20260904180100 87 194 0.0 8.0 0.00 0.20 0.00 74 1015.3
20260904174519 86 229 1.0 5.0 0.00 0.95 0.00 78 1015.0
20260904173042 85 208 2.0 6.0 0.00 0.95 0.00 81 1014.9
20260904171514 84 153 1.0 4.0 0.00 0.95 0.00 87 1015.2
20260904170037 83 168 0.0 3.0 0.00 0.95 0.00 88 1015.4
20260904164504 82 97 1.0 3.0 0.00 0.95 0.00 87 1015.6
20260904163033 83 74 1.0 3.0 0.00 0.95 0.00 85 1015.4
20260904161559 82 68 0.0 2.0 0.00 0.95 0.00 84 1015.3
20260904160028 82 68 1.0 3.0 0.00 0.95 0.00 85 1015.5
20260904154543 81 68 0.0 3.0 0.00 0.95 0.00 84 1015.3
20260904153104 80 68 1.0 4.0 0.00 0.95 0.00 85 1015.2
20260904151518 80 68 0.0 3.0 0.00 0.95 0.00 85 1015.2
20260904150039 80 68 0.0 2.0 0.00 0.95 0.00 85 1015.3
20260904144557 79 68 0.0 2.0 0.00 0.95 0.00 85 1015.2
20260904143029 79 68 0.0 2.0 0.00 0.95 0.00 85 1015.2
20260904141540 79 68 0.0 2.0 0.00 0.95 0.00 85 1015.0
20260904140014 78 68 0.0 2.0 0.00 0.95 0.00 85 1014.9
20260904134542 78 68 0.0 1.0 0.00 0.95 0.00 85 1014.8
20260904133101 78 68 0.0 0.0 0.00 0.95 0.00 86 1014.8
20260904131518 78 68 0.0 0.0 0.00 0.95 0.00 86 1014.6
20260904130041 77 68 0.0 0.0 0.00 0.95 0.00 86 1014.5
20260904124512 77 68 0.0 0.0 0.00 0.95 0.00 86 1014.3
20260904123030 77 68 0.0 0.0 0.00 0.95 0.00 86 1014.1
20260904121505 77 68 0.0 0.0 0.00 0.95 0.00 86 1014.0
20260904120031 77 68 0.0 0.0 0.00 0.95 0.00 86 1013.8
20260904114600 77 68 0.0 0.0 0.00 0.96 0.00 86 1013.8
20260904113011 77 68 0.0 0.0 0.00 0.96 0.00 86 1013.8
20260904111542 77 68 0.0 0.0 0.00 0.96 0.00 86 1013.8
20260904110019 77 68 0.0 0.0 0.00 0.96 0.00 86 1013.7
20260904104606 78 68 0.0 0.0 0.00 0.96 0.00 86 1013.5
20260904103018 78 68 0.0 0.0 0.00 0.96 0.00 86 1013.3
20260904101551 78 68 0.0 0.0 0.00 0.96 0.00 86 1013.3
20260904100020 78 68 0.0 0.0 0.00 0.96 0.00 86 1013.3
20260904094558 78 68 0.0 0.0 0.00 0.96 0.00 87 1013.1
20260904093024 78 68 0.0 0.0 0.00 0.96 0.00 87 1013.1
20260904091554 78 68 0.0 0.0 0.00 0.96 0.00 87 1013.0
20260904090029 78 68 0.0 0.0 0.00 0.96 0.00 87 1013.0
20260904084557 78 68 0.0 0.0 0.00 0.96 0.00 87 1012.8
20260904084505 78 68 0.0 0.0 0.00 0.96 0.00 87 1012.9
20260904083020 78 68 0.0 1.0 0.00 0.96 0.00 87 1013.1
20260904081556 78 68 0.0 0.0 0.00 0.96 0.00 87 1013.1
20260904080016 78 68 0.0 0.0 0.00 0.96 0.00 87 1013.0
20260904074543 78 68 0.0 0.0 0.00 0.96 0.00 87 1013.0
20260904073018 78 68 0.0 0.0 0.00 0.96 0.00 87 1013.2
20260904071540 78 68 0.0 1.0 0.00 0.96 0.00 87 1013.3
20260904070100 78 68 0.0 0.0 0.00 0.96 0.00 87 1013.4
20260904070002 78 68 0.0 0.0 0.00 0.96 0.00 87 1013.4
20260904064529 78 68 0.0 0.0 0.00 0.96 0.00 87 1013.4
20260904063054 78 68 0.0 0.0 0.00 0.96 0.00 87 1013.2
20260904061532 78 68 0.0 0.0 0.00 0.96 0.00 87 1013.4
20260904060117 78 68 0.0 0.0 0.00 0.96 0.00 87 1013.4
20260904060003 78 68 0.0 0.0 0.00 0.96 0.00 87 1013.4
20260904054525 78 68 0.0 0.0 0.00 1.07 0.00 87 1013.4
20260904053144 78 68 0.0 0.0 0.00 1.07 0.00 87 1013.3
20260904051524 78 68 0.0 1.0 0.00 1.07 0.00 87 1013.3
20260904044606 78 68 0.0 0.0 0.00 1.07 1.07 87 1013.3
20260904044501 78 68 0.0 0.0 0.00 1.07 1.07 87 1013.3
20260904043013 78 68 0.0 0.0 0.00 1.07 1.07 87 1013.3
20260904041546 78 68 0.0 0.0 0.00 1.07 1.07 87 1013.3
20260904040017 77 68 0.0 0.0 0.00 1.07 1.07 87 1013.3
20260904034542 77 68 0.0 0.0 0.00 1.07 1.07 87 1013.3
20260904033016 77 68 0.0 0.0 0.00 1.07 1.07 88 1013.3
20260904031548 77 68 0.0 0.0 0.00 1.07 1.07 88 1013.4
20260904030024 77 68 0.0 0.0 0.00 1.07 1.07 88 1013.4
20260904024606 77 68 0.0 0.0 0.00 1.07 1.07 88 1013.3
20260904023022 77 68 0.0 0.0 0.00 1.07 1.07 88 1013.2
20260904021548 77 68 0.0 0.0 0.00 1.07 1.07 88 1012.8
20260904020022 77 68 0.0 0.0 0.00 1.07 1.07 88 1012.6
20260904014605 77 68 0.0 0.0 0.00 1.10 1.07 88 1012.5
20260904013034 77 68 0.0 0.0 0.00 1.10 1.07 88 1012.5
20260904011556 77 68 0.0 1.0 0.00 1.10 1.07 88 1012.3
20260904010022 77 68 0.0 0.0 0.00 1.10 1.07 88 1012.4
20260904004556 77 68 0.0 1.0 0.00 1.32 1.07 88 1012.3
20260904003022 77 68 0.0 0.0 0.00 1.32 1.07 88 1012.3